Regional Weather Roundup
Issued by NWS Jackson, KY

Home | Current Version | Previous Version | Text Only | Print | Product List | Glossary On
Versions: 1 2 3 4 5 6 7 8 9 10 11 12 13 14 15 16 17 18 19 20 21 22 23 24 25 26 27
000
ASUS43 KJKL 112110
RWRJKL

EAST KENTUCKY HOURLY WEATHER ROUNDUP
NATIONAL WEATHER SERVICE JACKSON KY
400 PM EST MON DEC 11 2017

NOTE: "FAIR" INDICATES FEW OR NO CLOUDS BELOW 12,000 FEET WITH
NO SIGNIFICANT WEATHER AND/OR OBSTRUCTIONS TO VISIBILITY.

* THESE REPORTS ARE NOT UNDER NWS QUALITY CONTROL AND MAY NOT
  REPORT WEATHER SUCH AS PRECIPITATION AND FOG.

KYZ079-080-083-085-087-088-110-112-115-119-120-112200
...EASTERN KENTUCKY...

CITY           SKY/WX    TMP DP  RH WIND       PRES   REMARKS
JACKSON        SUNNY     53  26  35 VRB6      29.86F
LONDON         SUNNY     54  26  34 SW10      29.88F
SOMERSET*      SUNNY     54  28  37 W9        29.88F
MONTICELLO*    SUNNY     55  30  38 SW14G24   29.89F
WILLIAMSBURG*  CLEAR     55  28  35 SW7       29.88F
MIDDLESBORO*   SUNNY     52  29  42 S12       29.93F
HARLAN APT*    CLEAR     50  27  40 CALM      29.91F
PIKE CO APT*     N/A     53  25  33 S5        29.87F
BIG SANDY APT* CLEAR     53  26  35 SW8       29.87F
MOREHEAD APT*  CLEAR     50  25  37 S6G13     29.85F
$$

KYZ035-036-041-042-044-050-067-078-099-112200
...CENTRAL KENTUCKY...

CITY           SKY/WX    TMP DP  RH WIND       PRES   REMARKS
MT STERLING*   SUNNY     50  28  43 SW12G20   29.83F
FLEMING/MASON* SUNNY     47  28  48 S9        29.83F
DANVILLE*      SUNNY     52  30  43 S10G20    29.84F
LEXINGTON      SUNNY     51  28  41 S10       29.81F
FRANKFORT      MOSUNNY   52  26  36 S13G21    29.78F
LOUISVILLE     PTSUNNY   54  29  38 S12G23    29.76F
LEBANON*         N/A     52  28  40 S13G22    29.82F
GLASGOW*       SUNNY     55  29  37 SW12G18   29.85F
BOWLING GREEN  MOSUNNY   57  31  37 SW16      29.84F
$$

KYZ091>093-OHZ055-061-077-WVZ005-015-034-035-042-112200
...SOUTHERN OHIO/WEST VIRGINIA...

CITY           SKY/WX    TMP DP  RH WIND       PRES   REMARKS
COVINGTON      CLOUDY    45  30  55 S12       29.77F
COLUMBUS       CLOUDY    38  26  62 S8        29.85F WCI  32
DAYTON         PTSUNNY   38  28  67 S9        29.79F WCI  31
WILMINGTON     CLOUDY    39  29  67 S8        29.79F WCI  33
HUNTINGTON     SUNNY     50  24  36 SW9       29.85F
CHARLESTON     PTCLDY    49  24  37 S10       29.86F
PINEVILLE*     SUNNY     41  30  64 MISG      29.94F
BECKLEY        CLEAR     46  21  37 SW9       29.88F
BLUEFIELD      SUNNY     46  21  37 SW9       29.90F
LOGAN CO APT*    N/A     50  25  37 CALM      29.86F
$$

VAZ002-007-008-TNZ017-027-036-066-071-112200
...SOUTHWEST VIRGINIA/EAST TENNESSEE...

CITY           SKY/WX    TMP DP  RH WIND       PRES   REMARKS
WISE*          SUNNY     46  28  49 S13       29.91F
JONESVILLE*      N/A     54  27  35 SW6       29.95F
ABINGDON*      SUNNY     50  29  45 W6        29.94F
BRISTOL        SUNNY     52  29  41 SW14      29.95F
MORRISTOWN*    CLEAR     54  28  37 SW10      29.94F
SEVIERVILLE*   CLEAR     59  28  31 W6G15     29.94F
KNOXVILLE      SUNNY     55  33  43 SW16      29.95F
LAFOLLETTE*    CLEAR     54  30  40 VRB6      29.96F
OAK RIDGE      SUNNY     55  31  39 VRB5      29.96F
CROSSVILLE     SUNNY     53  30  41 S7        29.92F
NASHVILLE      MOSUNNY   60  30  32 S15       29.91F
$$

...KEY TO REMARKS...
VSB - VISIBILITY IN MILES
WCI - WIND CHILL INDEX
HX  - HEAT INDEX

$$




USA.gov is the U.S. government's official web portal to all federal, state and local government web resources and services.